Sigfox identifier Datetime Temperature Humidity SNR
003AB603 2019-04-23 14:48:25 16 32 23.7
003AB603 2019-04-23 14:13:17 15.9 32 23.6
003AB603 2019-04-23 13:38:10 15.8 32 22.9
003AB603 2019-04-23 13:03:02 15.7 32 22.9
003AB603 2019-04-23 12:27:54 15.7 32 22.8
003AB603 2019-04-23 11:52:46 15.6 32 22.5
003AB603 2019-04-23 11:17:37 15.6 32 22.2
003AB603 2019-04-23 10:42:29 15.6 32 21.9
003AB603 2019-04-23 10:07:21 15.6 32 21.5
003AB603 2019-04-23 09:32:13 15.6 32 21.3
003AB603 2019-04-23 08:57:05 15.6 32 21.1
003AB603 2019-04-23 08:21:57 15.6 32 20.8
003AB603 2019-04-23 07:46:49 15.6 32 20.7
003AB603 2019-04-23 07:11:41 15.6 32 19
003AB603 2019-04-23 06:36:33 15.6 32 19.2
003AB603 2019-04-23 06:01:24 15.6 32 19.1
003AB603 2019-04-23 05:26:16 15.6 31 19.1
003AB603 2019-04-23 04:51:08 15.6 31 18.9
003AB603 2019-04-23 04:16:01 15.6 31 18.8
003AB603 2019-04-23 03:40:55 15.6 31 18.8
003AB603 2019-04-23 03:05:50 15.6 31 18.8
003AB603 2019-04-23 02:30:44 15.6 31 18.9
003AB603 2019-04-23 01:55:38 15.6 31 19
003AB603 2019-04-23 01:20:32 15.6 31 19.1
003AB603 2019-04-23 00:45:28 15.6 31 19.2
003AB603 2019-04-23 00:10:23 15.6 31 19.2
003AB603 2019-04-22 23:35:17 15.6 31 19.2
003AB603 2019-04-22 23:00:12 15.6 31 19.2
003AB603 2019-04-22 22:25:07 15.7 31 19
003AB603 2019-04-22 21:50:02 15.8 31 19
003AB603 2019-04-22 21:14:57 15.8 31 19
003AB603 2019-04-22 20:39:51 15.8 31 18.9
003AB603 2019-04-22 20:04:46 15.8 31 19
003AB603 2019-04-22 19:29:40 15.8 31 18.9
003AB603 2019-04-22 18:54:34 15.8 31 18.8
003AB603 2019-04-22 18:19:30 15.8 31 18.8
003AB603 2019-04-22 17:44:23 15.8 31 18.7
003AB603 2019-04-22 17:09:16 15.8 31 18.5
003AB603 2019-04-22 16:34:09 15.8 31 18.5
003AB603 2019-04-22 15:59:05 15.7 31 18.4
003AB603 2019-04-22 15:23:56 15.6 31 18.4
003AB603 2019-04-22 14:48:51 15.6 31 18.6
003AB603 2019-04-22 14:13:44 15.6 31 18.8
003AB603 2019-04-22 13:38:39 15.6 31 18.9
003AB603 2019-04-22 13:03:33 15.6 31 18.9
003AB603 2019-04-22 12:28:28 15.6 31 18.9
003AB603 2019-04-22 11:53:22 15.6 31 19
003AB603 2019-04-22 11:18:16 15.6 31 18.8
003AB603 2019-04-22 10:43:11 15.6 31 18.8
003AB603 2019-04-22 10:08:06 15.5 31 18.9
003AB603 2019-04-22 09:33:01 15.6 31 19
003AB603 2019-04-22 08:57:54 15.5 31 19.1
003AB603 2019-04-22 08:22:48 15.5 31 19
003AB603 2019-04-22 07:47:41 15.5 31 19.1
003AB603 2019-04-22 07:12:33 15.5 31 19.1
003AB603 2019-04-22 06:37:25 15.6 31 19.1
003AB603 2019-04-22 06:02:17 15.5 31 19.1
003AB603 2019-04-22 05:27:10 15.5 31 19.1
003AB603 2019-04-22 04:52:02 15.4 31 19.2
003AB603 2019-04-22 04:16:52 15.5 31 19.5
003AB603 2019-04-22 03:41:45 15.4 31 19.6
003AB603 2019-04-22 03:06:38 15.4 31 19.7
003AB603 2019-04-22 02:31:32 15.4 30 20.1
003AB603 2019-04-22 01:56:22 15.4 31 20.2
003AB603 2019-04-22 01:21:15 15.4 31 20.1
003AB603 2019-04-22 00:46:06 15.4 31 20.3
003AB603 2019-04-22 00:10:57 15.4 30 20.2
003AB603 2019-04-21 23:35:50 15.4 30 20.1
003AB603 2019-04-21 23:00:42 15.4 30 20.2
003AB603 2019-04-21 22:25:34 15.4 30 20.2
003AB603 2019-04-21 21:50:25 15.4 30 20.2
003AB603 2019-04-21 21:15:17 15.4 30 20.1
003AB603 2019-04-21 20:40:09 15.4 30 20.3
003AB603 2019-04-21 20:05:00 15.4 30 20.1
003AB603 2019-04-21 19:29:52 15.4 30 20
003AB603 2019-04-21 18:54:43 15.4 30 19.8
003AB603 2019-04-21 18:19:34 15.4 30 19.7
003AB603 2019-04-21 17:44:24 15.4 30 19.7
003AB603 2019-04-21 17:09:13 15.4 30 19.7
003AB603 2019-04-21 16:34:05 15.4 30 19.6
003AB603 2019-04-21 15:58:55 15.4 30 19.6
003AB603 2019-04-21 15:23:46 15.4 30 19.8
003AB603 2019-04-21 14:48:36 15.4 30 19.8
003AB603 2019-04-21 14:13:26 15.4 30 19.7
003AB603 2019-04-21 13:38:17 15.4 30 19.8
003AB603 2019-04-21 13:03:09 15.4 30 19.6
003AB603 2019-04-21 12:28:01 15.4 30 19.5
003AB603 2019-04-21 11:52:52 15.4 30 19.3
003AB603 2019-04-21 11:17:45 15.4 30 19.4
003AB603 2019-04-21 10:42:36 15.4 30 19.3
003AB603 2019-04-21 10:07:28 15.4 30 19.3
003AB603 2019-04-21 09:32:19 15.6 30 19.3
003AB603 2019-04-21 08:57:11 15.6 30 19.2
003AB603 2019-04-21 08:22:03 15.6 30 19.1
003AB603 2019-04-21 07:46:55 15.6 30 19.2
003AB603 2019-04-21 07:11:48 15.6 30 19.2
003AB603 2019-04-21 06:36:41 15.6 30 19.2
003AB603 2019-04-21 06:01:34 15.6 30 19.3
003AB603 2019-04-21 05:26:26 15.6 30 19.4
003AB603 2019-04-21 04:51:18 15.6 30 19.4
003AB603 2019-04-21 04:16:10 15.6 30 19.3
003AB603 2019-04-21 03:41:03 15.6 30 19.5
003AB603 2019-04-21 03:05:57 15.6 30 19.5
003AB603 2019-04-21 02:30:50 15.5 30 19.5
003AB603 2019-04-21 01:55:43 15.6 30 19.4
003AB603 2019-04-21 01:20:36 15.6 30 19.3
003AB603 2019-04-21 00:45:29 15.5 30 19.1
003AB603 2019-04-21 00:10:23 15.5 30 19.2
003AB603 2019-04-20 23:35:16 15.5 29 19
003AB603 2019-04-20 23:00:08 15.5 30 19.1
003AB603 2019-04-20 22:25:01 15.6 30 19.2
003AB603 2019-04-20 21:49:53 15.6 29 19.2
003AB603 2019-04-20 21:14:46 15.6 29 19.1
003AB603 2019-04-20 20:39:39 15.6 29 19.1
003AB603 2019-04-20 20:04:32 15.6 29 19.1
003AB603 2019-04-20 19:29:25 15.6 29 19.1
003AB603 2019-04-20 18:54:19 15.6 29 19
003AB603 2019-04-20 18:19:10 15.6 29 19.1
003AB603 2019-04-20 17:44:02 15.6 29 19.2
003AB603 2019-04-20 17:08:55 15.6 29 19.3
003AB603 2019-04-20 16:33:48 15.6 29 19.4
003AB603 2019-04-20 15:58:41 15.6 29 19.4
003AB603 2019-04-20 15:23:36 15.5 29 19.4
003AB603 2019-04-20 14:48:28 15.5 29 19.2
003AB603 2019-04-20 14:13:21 15.6 29 19.2
003AB603 2019-04-20 13:38:15 15.6 29 19.4
003AB603 2019-04-20 13:03:08 15.6 29 19.4
003AB603 2019-04-20 12:28:02 15.6 29 19.3
003AB603 2019-04-20 11:52:54 15.6 29 19.5
003AB603 2019-04-20 11:17:47 15.6 29 19.6
003AB603 2019-04-20 10:42:40 15.6 29 19.7
003AB603 2019-04-20 10:07:31 15.6 29 19.8
003AB603 2019-04-20 09:32:24 15.6 29 19.7
003AB603 2019-04-20 08:57:17 15.6 29 19.7
003AB603 2019-04-20 08:22:10 15.6 29 19.7
003AB603 2019-04-20 07:47:04 15.6 29 19.6
003AB603 2019-04-20 07:11:57 15.7 29 19.7
003AB603 2019-04-20 06:36:49 15.6 29 19.8
003AB603 2019-04-20 06:01:41 15.7 29 19.8
003AB603 2019-04-20 05:26:33 15.8 29 19.9
003AB603 2019-04-20 04:51:25 15.7 29 19.9
003AB603 2019-04-20 04:16:18 15.8 29 20
003AB603 2019-04-20 03:41:10 15.8 29 20
003AB603 2019-04-20 03:06:03 15.8 29 20.4
003AB603 2019-04-20 02:30:56 15.8 29 20.3
003AB603 2019-04-20 01:55:49 15.9 29 20.3
003AB603 2019-04-20 01:20:40 15.9 29 20.3
003AB603 2019-04-20 00:45:32 16 29 20.4
003AB603 2019-04-20 00:10:24 16 28 20.6
003AB603 2019-04-19 23:35:16 16 28 20.6
003AB603 2019-04-19 23:00:07 16 28 20.5
003AB603 2019-04-19 22:25:01 16 28 20.5
003AB603 2019-04-19 21:49:51 16 28 20.5
003AB603 2019-04-19 21:14:43 16 28 20.5
003AB603 2019-04-19 20:39:36 16 28 20.5
003AB603 2019-04-19 20:04:28 16 28 20.6
003AB603 2019-04-19 19:29:19 16 28 20.7
003AB603 2019-04-19 18:54:14 16 28 20.7
003AB603 2019-04-19 18:19:06 16 28 20.8
003AB603 2019-04-19 17:43:59 16 28 20.8
003AB603 2019-04-19 17:08:51 16 28 20.7
003AB603 2019-04-19 16:33:44 16 28 20.7
003AB603 2019-04-19 15:58:36 16 28 20.6
003AB603 2019-04-19 15:23:29 16 28 20.6
003AB603 2019-04-19 14:48:22 16 28 20.4
003AB603 2019-04-19 14:13:15 15.9 28 20.4
003AB603 2019-04-19 13:38:07 15.9 28 20.3
003AB603 2019-04-19 13:03:00 15.8 28 20.3
003AB603 2019-04-19 12:27:53 15.8 28 19.9
003AB603 2019-04-19 11:52:46 15.9 28 20
003AB603 2019-04-19 11:17:40 15.8 28 20
003AB603 2019-04-19 10:42:33 15.8 28 20
003AB603 2019-04-19 10:07:27 15.9 28 19.7
003AB603 2019-04-19 09:32:20 15.8 28 19.7
003AB603 2019-04-19 08:57:13 15.9 28 19.7
003AB603 2019-04-19 08:22:05 16 28 19.6
003AB603 2019-04-19 07:46:57 16 28 20
003AB603 2019-04-19 07:11:49 16 28 20.6
003AB603 2019-04-19 06:36:42 16 28 21
003AB603 2019-04-19 06:01:37 16 28 21.1
003AB603 2019-04-19 05:26:31 16 28 21.3
003AB603 2019-04-19 04:51:24 16 28 22.3
003AB603 2019-04-19 04:16:17 16 28 22.4
003AB603 2019-04-19 03:41:10 16 28 22.6
003AB603 2019-04-19 03:06:05 16.2 28 22.8
003AB603 2019-04-19 02:30:58 16.3 28 23.1
003AB603 2019-04-19 01:55:49 16.3 28 23.5
003AB603 2019-04-19 01:20:43 16.3 28 23.6
003AB603 2019-04-19 00:45:40 16.3 28 24
003AB603 2019-04-19 00:10:30 16.5 28 24.2
003AB603 2019-04-18 23:35:22 16.5 27 24.8
003AB603 2019-04-18 23:00:16 16.5 27 24.9
003AB603 2019-04-18 22:25:10 16.5 27 24.9
003AB603 2019-04-18 21:50:07 16.5 27 24.9
003AB603 2019-04-18 21:14:58 16.5 27 24.9
003AB603 2019-04-18 20:39:53 16.5 27 24.9
003AB603 2019-04-18 20:04:47 16.5 27 24.9
003AB603 2019-04-18 19:29:40 16.5 27 24.9
003AB603 2019-04-18 18:54:32 16.5 27 24.8
003AB603 2019-04-18 18:19:24 16.5 27 24.6
003AB603 2019-04-18 17:44:16 16.5 27 24.5
003AB603 2019-04-18 17:09:09 16.5 27 24.4
003AB603 2019-04-18 16:34:03 16.5 27 24.3
003AB603 2019-04-18 15:58:57 16.4 27 23.7
003AB603 2019-04-18 15:23:50 16.3 27 23.6
003AB603 2019-04-18 14:48:43 16.3 27 23.4
003AB603 2019-04-18 14:13:36 16.3 27 23.9
003AB603 2019-04-18 13:38:27 16.3 27 23.6
003AB603 2019-04-18 13:03:20 16.3 27 23.2
003AB603 2019-04-18 12:28:13 16.3 27 23.2
003AB603 2019-04-18 11:53:05 16.3 27 23.1
003AB603 2019-04-18 11:17:58 16.3 27 22.9
003AB603 2019-04-18 10:42:51 16.3 27 22.7
003AB603 2019-04-18 10:07:43 16.3 27 21.7
003AB603 2019-04-18 09:32:36 16.3 27 22.6
003AB603 2019-04-18 08:57:30 16.4 27 22.4
003AB603 2019-04-18 08:22:24 16.5 27 22.4
003AB603 2019-04-18 07:47:17 16.5 27 22.4
003AB603 2019-04-18 07:12:11 16.5 27 22.4
003AB603 2019-04-18 06:37:04 16.5 27 22.5
003AB603 2019-04-18 06:01:57 16.5 27 22.5
003AB603 2019-04-18 05:26:50 16.4 27 22.5
003AB603 2019-04-18 04:51:42 16.4 27 22.5
003AB603 2019-04-18 04:16:35 16.5 27 23.2
003AB603 2019-04-18 03:41:28 16.5 27 23.2
003AB603 2019-04-18 03:06:20 16.5 27 23.2
003AB603 2019-04-18 02:31:13 16.5 27 23.2
003AB603 2019-04-18 01:56:05 16.7 27 23.3
003AB603 2019-04-18 01:20:59 16.7 27 23.2
003AB603 2019-04-18 00:45:53 16.8 27 23.2
003AB603 2019-04-18 00:10:46 16.9 26 23.2
003AB603 2019-04-17 23:35:39 16.9 26 22.3
003AB603 2019-04-17 23:00:32 16.9 26 22.3
003AB603 2019-04-17 22:25:26 16.9 26 22.4
003AB603 2019-04-17 21:50:19 16.9 26 22.4
003AB603 2019-04-17 21:15:12 16.9 26 22.3
003AB603 2019-04-17 20:40:05 16.9 26 22.3
003AB603 2019-04-17 20:04:58 16.9 26 22.4
003AB603 2019-04-17 19:29:50 16.9 26 22.5
003AB603 2019-04-17 18:54:43 16.9 26 21.4
003AB603 2019-04-17 18:19:36 16.9 26 21.5
003AB603 2019-04-17 17:44:29 17 26 21.5
003AB603 2019-04-17 17:09:22 17 26 21.7
003AB603 2019-04-17 16:34:14 17.1 26 21.7
003AB603 2019-04-17 15:59:07 17.1 26 22.1
003AB603 2019-04-17 15:23:59 17.1 26 23
003AB603 2019-04-17 14:48:52 17.1 26 22.9
003AB603 2019-04-17 14:13:46 17.3 26 22.9
003AB603 2019-04-17 13:03:34 17.3 25 22
003AB603 2019-04-17 12:28:27 17.3 25 22
003AB603 2019-04-17 11:53:21 17.4 25 21.9
003AB603 2019-04-17 11:18:14 17.4 25 21.8
003AB603 2019-04-17 10:43:07 17.5 25 21.7
003AB603 2019-04-17 10:07:58 17.5 25 21.6
003AB603 2019-04-17 09:32:49 17.5 25 21.6
003AB603 2019-04-17 08:57:41 17.7 25 21.6
003AB603 2019-04-17 08:22:33 17.8 25 21.7
003AB603 2019-04-17 07:47:25 17.8 25 21.8
003AB603 2019-04-17 07:12:17 18 25 22.7
003AB603 2019-04-17 06:37:10 18 25 22.7
003AB603 2019-04-17 06:02:01 18.1 25 22.6
003AB603 2019-04-17 05:26:54 18.2 25 22.6
003AB603 2019-04-17 04:51:47 18.2 25 22.4
003AB603 2019-04-17 04:16:41 18.3 24 22.2
003AB603 2019-04-17 03:41:34 18.4 24 22.1
003AB603 2019-04-17 03:06:25 18.4 24 22.1
003AB603 2019-04-17 02:31:20 18.6 24 22
003AB603 2019-04-17 01:56:13 18.6 24 21.8
003AB603 2019-04-17 01:21:06 18.6 24 21.9
003AB603 2019-04-17 00:45:58 18.6 24 21.2
003AB603 2019-04-17 00:10:53 18.7 24 19.8
003AB603 2019-04-16 23:35:47 18.8 24 20
003AB603 2019-04-16 23:00:40 19 24 20.1
003AB603 2019-04-16 22:25:34 19 24 20
003AB603 2019-04-16 21:50:28 19.2 24 19.9
003AB603 2019-04-16 21:15:22 19.4 23 20.1
003AB603 2019-04-16 20:40:14 19.5 23 20.2
003AB603 2019-04-16 20:05:07 19.5 23 20.2
003AB603 2019-04-16 19:30:00 19.5 23 20.2
003AB603 2019-04-16 18:54:53 19.7 23 20.5
003AB603 2019-04-16 18:19:46 19.7 23 20.7
003AB603 2019-04-16 17:44:38 19.9 23 20.7
003AB603 2019-04-16 15:59:17 20.3 23 20.7
003AB603 2019-04-16 15:24:09 20.5 23 19.4
003AB603 2019-04-16 14:49:01 20.7 23 19.5
003AB603 2019-04-16 13:38:47 21 22 19.7
003AB603 2019-04-16 13:03:42 21 22 20
003AB603 2019-04-16 12:28:34 20.8 22 20.2
003AB603 2019-04-16 11:53:26 20.7 23 20.3
003AB603 2019-04-16 11:18:20 20.7 22 21.8
003AB603 2019-04-16 10:43:15 20.7 22 21.9
003AB603 2019-04-16 10:08:09 20.7 22 21.9
003AB603 2019-04-16 09:33:03 20.7 22 21.9
003AB603 2019-04-16 08:57:59 20.7 22 22.1
003AB603 2019-04-16 08:22:53 20.7 22 22.1
003AB603 2019-04-16 07:47:49 20.7 22 22.1
003AB603 2019-04-16 07:12:43 20.7 22 22
003AB603 2019-04-16 06:37:37 20.8 22 22.1
003AB603 2019-04-16 06:02:31 20.7 22 22.1
003AB603 2019-04-16 05:27:23 20.8 22 22.1
003AB603 2019-04-16 04:52:16 20.8 22 22.1
003AB603 2019-04-16 04:17:10 20.7 22 22.2
003AB603 2019-04-16 03:42:03 21 22 22.2
003AB603 2019-04-16 03:06:54 21 22 22
003AB603 2019-04-16 02:31:46 21 22 22
003AB603 2019-04-16 01:56:37 21 21 22.1
003AB603 2019-04-16 01:21:27 21 21 22.2
003AB603 2019-04-16 00:46:18 21 21 22.2
003AB603 2019-04-16 00:11:09 21 21 22.3
003AB603 2019-04-15 23:36:01 21 21 22.5
003AB603 2019-04-15 23:00:49 21 21 22.5
003AB603 2019-04-15 22:25:41 21 21 22.6
003AB603 2019-04-15 21:50:31 21 21 23.4
003AB603 2019-04-15 21:15:24 21 20 23.5
003AB603 2019-04-15 20:40:16 21.1 20 23
003AB603 2019-04-15 20:05:08 21.2 20 23
003AB603 2019-04-15 19:30:00 21.2 20 23.1
003AB603 2019-04-15 18:54:52 21.2 20 23.2
003AB603 2019-04-15 18:19:45 21.2 20 23.2
003AB603 2019-04-15 17:44:39 21.4 19 23.2
003AB603 2019-04-15 17:09:33 21.4 19 23.3
003AB603 2019-04-15 16:34:28 21.5 19 24
003AB603 2019-04-15 15:59:22 21.6 19 24.1
003AB603 2019-04-15 15:24:15 21.6 18 24.3
003AB603 2019-04-15 14:49:08 21.8 18 24.4
003AB603 2019-04-15 14:14:01 22 18 24.5
003AB603 2019-04-15 13:38:54 22 17 24.7
003AB603 2019-04-15 13:03:47 22.2 17 24.8
003AB603 2019-04-15 12:28:39 22.3 16 25
003AB603 2019-04-15 11:53:32 22.2 15 25
003AB603 2019-04-15 11:18:24 22.2 15 25
003AB603 2019-04-15 10:43:16 22.1 16 24.9
003AB603 2019-04-15 10:08:08 22 16 24.9
003AB603 2019-04-15 09:33:00 22 17 24.9
003AB603 2019-04-15 08:57:54 21.9 16 24.8
003AB603 2019-04-15 08:22:49 21.8 16 24.8
003AB603 2019-04-15 07:47:43 21.8 17 24.8
003AB603 2019-04-15 07:12:36 21.8 17 24.4
003AB603 2019-04-15 06:37:31 21.8 17 24.4
003AB603 2019-04-15 06:02:25 21.8 17 24.5
003AB603 2019-04-15 05:27:20 21.8 17 24.5
003AB603 2019-04-15 04:52:14 21.8 17 24.6
003AB603 2019-04-15 04:17:09 21.8 17 24.6
003AB603 2019-04-15 03:42:04 21.8 17 24.7
003AB603 2019-04-15 03:06:58 21.8 17 24.7
003AB603 2019-04-15 02:31:52 21.8 17 24.6
003AB603 2019-04-15 01:56:47 21.8 17 24.1
003AB603 2019-04-15 01:21:41 21.8 17 24.6
003AB603 2019-04-15 00:46:37 21.8 17 24.6
003AB603 2019-04-15 00:11:31 21.8 17 24.6
003AB603 2019-04-14 23:36:26 21.8 17 24.7
003AB603 2019-04-14 23:01:19 21.8 17 24.6
003AB603 2019-04-14 22:26:13 21.8 17 24.5
003AB603 2019-04-14 21:51:05 21.8 18 25
003AB603 2019-04-14 21:15:59 21.9 18 24.9
003AB603 2019-04-14 20:40:54 22 18 25
003AB603 2019-04-14 20:05:47 21.9 18 25
003AB603 2019-04-14 19:30:41 21.9 18 25
003AB603 2019-04-14 18:55:34 21.8 18 25
003AB603 2019-04-14 18:20:27 21.8 17 25
003AB603 2019-04-14 17:45:20 21.8 18 25
003AB603 2019-04-14 17:10:14 21.8 18 25.1
003AB603 2019-04-14 16:35:06 21.8 18 25.1
003AB603 2019-04-14 15:59:59 21.8 18 25.1
003AB603 2019-04-14 15:24:53 21.8 18 25.1
003AB603 2019-04-14 14:49:46 21.8 18 25.1
003AB603 2019-04-14 14:14:39 21.8 18 25.1
003AB603 2019-04-14 13:39:33 21.8 18 25.1
003AB603 2019-04-14 13:04:26 21.8 18 25.1
003AB603 2019-04-14 12:29:20 21.8 18 25.1
003AB603 2019-04-14 11:54:12 21.8 18 25.2
003AB603 2019-04-14 11:19:05 21.8 18 25.6
003AB603 2019-04-14 10:43:57 21.8 18 25.3
003AB603 2019-04-14 10:08:52 21.8 18 25.2
003AB603 2019-04-14 09:33:45 21.8 18 25.2
003AB603 2019-04-14 08:58:37 21.8 18 25.1
003AB603 2019-04-14 08:23:30 21.8 18 25.1
003AB603 2019-04-14 07:48:23 21.8 18 25.1
003AB603 2019-04-14 07:13:16 21.8 17 24.7
003AB603 2019-04-14 06:38:10 21.8 18 24.7
003AB603 2019-04-14 06:03:03 21.8 17 24.8
003AB603 2019-04-14 05:27:56 21.8 17 24.8
003AB603 2019-04-14 04:52:48 21.8 17 24.7
003AB603 2019-04-14 04:17:41 21.8 17 24.7
003AB603 2019-04-14 03:42:34 21.8 18 24.7
003AB603 2019-04-14 03:07:26 21.9 18 24.7
003AB603 2019-04-14 02:32:18 21.9 18 24.7
003AB603 2019-04-14 01:57:10 21.9 18 24.7
003AB603 2019-04-14 01:22:02 21.9 18 24.7
003AB603 2019-04-14 00:46:54 22 18 24.7
003AB603 2019-04-14 00:11:47 22 18 24.6
003AB603 2019-04-13 23:36:39 22 17 24.5
003AB603 2019-04-13 23:01:32 22 17 24.4
003AB603 2019-04-13 22:26:23 22 17 24.4
003AB603 2019-04-13 21:51:14 22 17 24.4
003AB603 2019-04-13 21:16:06 22 17 24.4
003AB603 2019-04-13 20:40:57 22 17 23.9
003AB603 2019-04-13 20:05:48 22.1 17 23.8
003AB603 2019-04-13 19:30:40 22.1 17 23.9
003AB603 2019-04-13 18:55:32 22.1 18 23.7
003AB603 2019-04-13 18:20:24 22.2 18 23.7
003AB603 2019-04-13 17:45:16 22.2 18 23.7
003AB603 2019-04-13 17:10:08 22.2 18 23.6
003AB603 2019-04-13 16:34:59 22.2 18 23.5
003AB603 2019-04-13 15:59:50 22.2 18 23.6
003AB603 2019-04-13 15:24:41 22.2 18 23.6
003AB603 2019-04-13 14:49:35 22.2 18 23.6
003AB603 2019-04-13 14:14:27 22.2 18 23.6
003AB603 2019-04-13 13:39:19 22.2 18 23.6
003AB603 2019-04-13 13:04:11 22.2 18 23.5
003AB603 2019-04-13 12:29:02 22.2 18 23.5
003AB603 2019-04-13 11:53:54 22.2 18 23.4
003AB603 2019-04-13 11:18:46 22.2 18 23.4
003AB603 2019-04-13 10:43:39 22.2 18 23.4
003AB603 2019-04-13 10:08:32 22.2 18 23.3
003AB603 2019-04-13 09:33:23 22.2 18 23.4
003AB603 2019-04-13 08:58:14 22.2 18 23.5
003AB603 2019-04-13 08:23:05 22.2 18 23.6
003AB603 2019-04-13 07:47:57 22.2 18 23.5
003AB603 2019-04-13 07:12:50 22.2 18 23.4
003AB603 2019-04-13 06:37:41 22.2 17 24
003AB603 2019-04-13 06:02:34 22.3 18 24
003AB603 2019-04-13 05:27:25 22.2 18 23.9
003AB603 2019-04-13 04:52:17 22.2 18 24.4
003AB603 2019-04-13 04:17:09 22.2 18 25
003AB603 2019-04-13 03:41:59 22.3 18 25
003AB603 2019-04-13 03:06:50 22.4 18 25.1
003AB603 2019-04-13 02:31:42 22.5 18 25.2
003AB603 2019-04-13 01:56:35 22.5 18 25.3
003AB603 2019-04-13 01:21:26 22.5 18 25.4
003AB603 2019-04-13 00:46:16 22.5 18 25.4
003AB603 2019-04-13 00:11:06 22.5 18 25.5
003AB603 2019-04-12 23:35:55 22.5 19 25.6
003AB603 2019-04-12 23:00:45 22.7 19 25.6
003AB603 2019-04-12 22:25:36 22.7 19 25.7
003AB603 2019-04-12 21:50:27 22.7 19 25.9
003AB603 2019-04-12 21:15:20 22.7 19 26
003AB603 2019-04-12 20:40:11 22.7 19 26.1
003AB603 2019-04-12 20:05:04 22.7 18 26.3
003AB603 2019-04-12 19:29:57 22.8 18 26.5
003AB603 2019-04-12 18:54:49 22.9 18 26.8
003AB603 2019-04-12 18:19:39 22.9 17 26.9
003AB603 2019-04-12 17:44:31 22.9 17 27.2
003AB603 2019-04-12 17:09:21 22.9 17 27.5
003AB603 2019-04-12 16:34:10 22.9 17 28
003AB603 2019-04-12 15:59:02 22.8 17 27.4
003AB603 2019-04-12 15:23:54 22.7 18 28
003AB603 2019-04-12 14:48:45 22.5 19 29
003AB603 2019-04-12 14:13:36 22 19 28.3
003AB603 2019-04-12 13:38:27 21.5 20 25.5
003AB603 2019-04-12 13:03:19 20.6 26 0